Riohacha, Colombia

9:51 PM -05 on August 19, 2017 (GMT -0500)
Almirante Padilla

Weather History for SKRH - December, 2013

Change the Weather History Date:

Friday, December 27, 2013

  Actual Average Record
Temperature  
Mean Temperature 84 °F -  
Max Temperature 93 °F - - ()
Min Temperature 75 °F - - ()
Cooling Degree Days 19    
Growing Degree Days 34 (Base 50)    
Moisture  
Dew Point 71 °F    
Average Humidity 60    
Maximum Humidity 89    
Minimum Humidity 38    
Precipitation  
Precipitation 0.00 in - - ()
Sea Level Pressure  
Sea Level Pressure 29.89 in    
Wind  
Wind Speed 10 mph ()    
Max Wind Speed 24 mph    
Max Gust Speed 36 mph    
Visibility 7.7 miles    
Events      
T = Trace of Precipitation, MM = Missing Value Source: Averaged Metar Reports

Daily Weather History Graph

Daily Weather History Graph

Search for Another Location

Airport or City:

Trip Planner

Search our weather history database for the weather conditions in past years. The results will help you decide how hot, cold, wet, or windy it might be!

Date:

Astronomy

Dec. 27, 2013 Rise Set
Actual Time 6:09 AM -05 5:36 PM -05
Civil Twilight 5:46 AM -05 5:59 PM -05
Nautical Twilight 5:19 AM -05 6:26 PM -05
Astronomical Twilight 4:53 AM -05 6:52 PM -05
Moon 1:11 AM -05 (12/27) 1:16 PM -05 (12/27)
Length of Visible Light 12h 13m
Length of Day
11h 27m
Waning Crescent, 28% of the Moon is Illuminated
Dec 27
Waning Crescent
Jan 1
New
Jan 7
First Quarter
Jan 15
Full
Jan 24
Last Quarter

Hourly Weather History & Observations

Time (-05) Temp. Heat Index Dew Point Humidity Pressure Visibility Wind Dir Wind Speed Gust Speed Precip Events Conditions
6:00 AM 78.8 °F - 73.4 °F 83% 29.91 in 6.2 mi Calm Calm - N/A   Partly Cloudy
7:00 AM 79 °F - 74 °F 80% 29.94 in 12 mi ESE 11.2 mph - -   Scattered Clouds
7:00 AM 75.2 °F - 71.6 °F 89% 29.95 in 6.2 mi Calm Calm - N/A   Partly Cloudy
8:00 AM 78.8 °F - 71.6 °F 78% 29.97 in 6.2 mi ESE 8.1 mph - N/A   Partly Cloudy
9:00 AM 84.2 °F 90.9 °F 73.4 °F 70% 29.95 in 6.2 mi ESE 16.1 mph - N/A   Scattered Clouds
10:00 AM 86 °F - 73 °F 57% 29.96 in 12 mi East 17.9 mph - -   Partly Cloudy
10:00 AM 86.0 °F 89.4 °F 68.0 °F 55% 29.92 in 6.2 mi ESE 16.1 mph - N/A   Partly Cloudy
11:00 AM 89.6 °F 92.2 °F 66.2 °F 46% 29.92 in 6.2 mi ESE 24.2 mph 35.7 mph N/A   Partly Cloudy
12:00 PM 89.6 °F 92.2 °F 66.2 °F 46% 29.91 in 6.2 mi ESE 18.4 mph - N/A   Partly Cloudy
1:00 PM 93 °F - 70 °F 38% 29.88 in 12 mi East 15.7 mph - -   Partly Cloudy
1:00 PM 93.2 °F 98.8 °F 69.8 °F 46% 29.86 in 6.2 mi East 15.0 mph 26.5 mph N/A   Scattered Clouds
2:00 PM 91.4 °F 93.2 °F 64.4 °F 41% 29.83 in 6.2 mi East 18.4 mph 31.1 mph N/A   Partly Cloudy
3:00 PM 91.4 °F 96.8 °F 69.8 °F 49% 29.82 in 6.2 mi ESE 13.8 mph - N/A   Partly Cloudy
4:00 PM 88 °F - 78 °F 65% 29.78 in 11 mi ENE 9.2 mph - -   Scattered Clouds
4:00 PM 91.4 °F 96.8 °F 69.8 °F 49% 29.81 in 6.2 mi East 23.0 mph - N/A   Partly Cloudy
5:00 PM 89.6 °F 94.7 °F 69.8 °F 52% 29.83 in 6.2 mi ESE 17.3 mph - N/A   Scattered Clouds
6:00 PM 78.8 °F - 73.4 °F 83% 29.86 in 6.2 mi NE 8.1 mph - N/A   Scattered Clouds
7:00 PM 85 °F - 69 °F 49% 29.89 in 12 mi SE 6.7 mph - -   Partly Cloudy
7:00 PM 86.0 °F 90.4 °F 69.8 °F 58% 29.88 in 6.2 mi SE 6.9 mph - N/A   Scattered Clouds